Location: Unspecified
(39.6445°N, 0.0000°E)
Time: 03:32:20
(UTC+00:00)

Hubble Space Telescope - Visible Passes

Search period start: 20 June 2019 00:00
Search period end: 30 June 2019 00:00
Orbit: 536 x 540 km, 28.5° (Epoch: 19 June)

Date Brightness Start Highest point End Pass type
(mag) Time Alt. Az. Time Alt. Az. Time Alt. Az.
20 Jun 2.7 03:26:51 12° SSW 03:27:06 12° SSW 03:28:45 10° S visible
26 Jun 2.7 21:08:39 10° SSW 21:09:58 14° SSW 21:09:58 14° SSW visible
27 Jun 2.5 20:57:52 10° SW 21:00:21 16° S 21:00:21 16° S visible
28 Jun 2.4 20:47:08 10° SW 20:49:51 17° S 20:50:33 16° SSE visible
29 Jun 2.5 20:36:27 10° SW 20:39:13 17° S 20:40:38 15° SSE visible
